Regional Weather Roundup
Issued by NWS

Home | Current Version | Previous Version | Text Only | Print | Product List | Glossary Off
Versions: 1 2 3 4 5 6 7 8 9 10 11 12 13 14 15 16 17 18 19 20 21 22 23 24 25 26 27 28 29 30 31 32 33 34 35 36 37 38 39 40 41 42 43 44 45 46 47 48 49 50

000
ASUS43 KDTX 030901
RWRMI
MICHIGAN HOURLY REGIONAL WEATHER ROUNDUP
NATIONAL WEATHER SERVICE DETROIT/PONTIAC MI
500 AM EDT FRI JUL 03 2015

NOTE: "FAIR" INDICATES FEW OR NO CLOUDS BELOW 12,000 FEET WITH NO
SIGNIFICANT WEATHER AND/OR OBSTRUCTION TO VISIBILITY.

MIZ047>049-052>055-059>063-066>070-074>076-081>083-031000-
SOUTHEAST LOWER MICHIGAN

CITY           SKY/WX    TMP DP  RH WIND       PRES   REMARKS
ADRIAN         PTCLDY    53  50  89 NE6       29.99F
ALMA           CLEAR     45  45  99 CALM      30.01F
ANN ARBOR      PTCLDY    48  48 100 NE3       29.99F
BAD AXE        CLEAR     40  38  93 CALM      30.03R
CARO           CLEAR     42  42 100 CALM      30.01F
DETROIT CITY   CLEAR     54  48  80 N3        30.00F
DETROIT        PTCLDY    54  49  83 N3        30.00F
FLINT          CLEAR     48  45  89 SE3       30.01S
GROSSE ILE     PTCLDY    54  50  87 CALM      29.98F
HILLSDALE      PTCLDY    54  54 100 E3        29.99F
HOWELL         CLEAR     49  47  94 CALM      30.00F

CITY           SKY/WX    TMP DP  RH WIND       PRES   REMARKS
JACKSON        PTCLDY    52  50  93 CALM      29.99F
LAMBERTVILLE   PTCLDY    57  51  80 CALM      29.98F
LANSING        CLEAR     50  47  89 CALM      30.00F
LAPEER         FAIR      43  42  97 CALM      30.01F FOG
MASON          PTCLDY    49  47  95 CALM      29.99F
MONROE         PTCLDY    54  51  89 N5        29.98F
MT. CLEMENS    CLEAR     49  48  95 NW3       29.98F
PONTIAC        CLEAR     50  47  89 CALM      30.00S
PORT HOPE        N/A     50  41  71 SW9       30.01R
PORT HURON     CLEAR     46  46 100 CALM      30.01S
TRI CITIES     CLEAR     51  46  83 NE5       30.01F
MIDLAND        FAIR      42  41  95 CALM      30.00F
TROY           CLEAR     53  49  87 CALM      30.02S
SAGINAW HB     CLEAR     45  45 100 NE5       30.00F
$$
MIZ043>046-050>051-056>058-064>065-071>073-077>080-031000-
SOUTHWEST LOWER MICHIGAN

CITY           SKY/WX    TMP DP  RH WIND       PRES   REMARKS
BATTLE CREEK   PTCLDY    57  50  77 E5        29.99F
BENTON HARBOR  MOCLDY    54  50  86 E3        29.97F
BIG RAPIDS     CLEAR     48  45  88 CALM      30.01S
COLDWATER      PTCLDY    54  54  98 CALM      29.99S
FREMONT        FAIR      54  51  92 CALM      30.00S
HOLLAND        PTCLDY    53  49  86 CALM      29.99F
GRAND RAPIDS   CLEAR     51  48  89 CALM      30.00S
IONIA          FAIR      49  48  98 CALM      29.99F FOG
KALAMAZOO      PTCLDY    54  50  86 CALM      29.99F
LUDINGTON      CLEAR     48  46  93 CALM      30.00S FOG
MARSHALL       PTCLDY    52  50  94 CALM      29.98F
MOUNT PLEASANT FOG       47  46  96 CALM      30.01S VSB 1/2
MUSKEGON       CLEAR     52  49  89 CALM      30.00S
SOUTH HAVEN    PTCLDY    55  49  82 E3        29.98S
$$
MIZ016>042-031000-
NORTHERN LOWER MICHIGAN

CITY           SKY/WX    TMP DP  RH WIND       PRES   REMARKS
ALPENA         CLEAR     49  43  80 CALM      30.00S
BEAVER ISLAND  CLOUDY    55  49  78 SW3       29.98S
BELLAIRE       MOCLDY    47  46  95 CALM      30.00S
CADILLAC       CLEAR     43  42  95 CALM      30.01F
CHARLEVOIX     MOCLDY    58  50  75 S6        30.01S
FRANKFORT      CLEAR     52  44  75 CALM      30.00R
GAYLORD        CLEAR     53  46  77 SW3       30.01S
GRAYLING       CLEAR     41  39  95 CALM      30.02S
HARBOR SPRINGS MOCLDY    56  49  76 CALM      29.99S
HOUGHTON LAKE  CLEAR     43  42  97 E3        30.02S
MANISTEE       CLEAR    N/A N/A N/A CALM      30.00S
OSCODA         CLEAR     43  39  86 CALM      30.00S
PELLSTON       MOCLDY    48  47  96 CALM      29.98S
ROGERS CITY    CLEAR     54  46  76 SW8       29.99S
TRAVERSE CITY  CLEAR     53  48  83 CALM      29.99R
$$
MIZ007>008-015-031000-
EASTERN UPPER MICHIGAN

CITY           SKY/WX    TMP DP  RH WIND       PRES   REMARKS
KINROSS        MOCLDY    55  52  88 S5        29.96S
MACKINAC ISLAN PTCLDY    58  49  71 SW9       29.97S
NEWBERRY       MOCLDY    57  44  62 SW12      29.94F
S. S. MARIE    CLOUDY    56  48  74 CALM      29.95S
MUNISING         N/A     63  47  55 SW9G21    29.92S
$$
MIZ004>006-011>014-085-031000-
CENTRAL UPPER MICHIGAN

CITY           SKY/WX    TMP DP  RH WIND       PRES   REMARKS
MANISTIQUE     CLOUDY    56  51  84 S6        29.96S
ESCANABA       CLOUDY    55  48  76 SW6       29.97S
MENOMINEE      CLEAR     55  46  71 CALM      29.98S
SAWYER-GWINN   CLOUDY    59  49  69 SW10      29.94S
$$
MIZ001>003-009>011-084-031000-
WESTERN UPPER MICHIGAN

CITY           SKY/WX    TMP DP  RH WIND       PRES   REMARKS
IRON MOUNTAIN  CLEAR     53  48  83 CALM      29.96S
HOUGHTON       CLOUDY    68  52  56 W16G23    29.88F
COPPER HARBOR    N/A     71  52  50 VRB7G20   29.83F
IRONWOOD       CLEAR     63  54  72 SW10      29.91F
$$

ABBREVIATIONS USED IN REMARKS
   TC - TEMPERATURE IN CELSIUS
  WCI - WIND CHILL INDEX
   HX - HEAT INDEX
  VSB - VISIBILITY



USA.gov is the U.S. government's official web portal to all federal, state and local government web resources and services.